,,Stat6,,Stat2,,Stat8,,Stat9,,Stat10,,Wind1,,Wind1,
time,status,PA1M_AVG,status,PR1M_SUM,status,RH1M_AVG,status,SR1M_AVG,status,TA1M_AVG,status,W1dAve1m,status,W1sAve1m,
2007-02-28, 00:00:00,VALID,916.455,VALID,0,VALID,92.1799,VALID,-0.0169808,VALID,20.5139,VALID,145,VALID,1.23656,
2007-02-28, 00:01:00,VALID,916.442,VALID,0,VALID,92.2282,VALID,-0.0169808,VALID,20.5107,VALID,146,VALID,1.48307,
2007-02-28, 00:02:00,VALID,916.43,VALID,0,VALID,92.274,VALID,-0.0509425,VALID,20.5002,VALID,155,VALID,1.35717,
2007-02-28, 00:03:00,VALID,916.421,VALID,0,VALID,92.3795,VALID,-0.0169808,VALID,20.491,VALID,145,VALID,1.64244,
2007-02-28, 00:04:00,VALID,916.418,VALID,0,VALID,92.4431,VALID,0,VALID,20.4645,VALID,152,VALID,1.73895,
2007-02-28, 00:05:00,VALID,916.408,VALID,0,VALID,92.5347,VALID,-0.0509425,VALID,20.462,VALID,157,VALID,1.73136,
2007-02-28, 00:06:00,VALID,916.373,VALID,0,VALID,92.4393,VALID,-0.0169808,VALID,20.449,VALID,149,VALID,2.35938,
2007-02-28, 00:07:00,VALID,916.367,VALID,0,VALID,92.2079,VALID,0,VALID,20.4752,VALID,154,VALID,2.04794,
2007-02-28, 00:08:00,VALID,916.358,VALID,0,VALID,92.1684,VALID,-0.0679233,VALID,20.485,VALID,141,VALID,1.92246,
2007-02-28, 00:09:00,VALID,916.332,VALID,0,VALID,92.1595,VALID,-0.0339617,VALID,20.4745,VALID,150,VALID,1.41034,
2007-02-28, 00:10:00,VALID,916.294,VALID,0,VALID,92.1812,VALID,0,VALID,20.4588,VALID,142,VALID,2.15911,
2007-02-28, 00:11:00,VALID,916.276,VALID,0,VALID,92.1799,VALID,-0.0169808,VALID,20.4518,VALID,146,VALID,1.53776,
2007-02-28, 00:12:00,VALID,916.255,VALID,0,VALID,92.0769,VALID,-0.0339617,VALID,20.452,VALID,147,VALID,2.17988,
2007-02-28, 00:13:00,VALID,916.226,VALID,0,VALID,91.979,VALID,-0.0169808,VALID,20.4617,VALID,136,VALID,1.84551,
2007-02-28, 00:14:00,VALID,916.19,VALID,0,VALID,92.0108,VALID,0.0169808,VALID,20.4653,VALID,142,VALID,1.69283,
2007-02-28, 00:15:00,VALID,916.162,VALID,0,VALID,92.0527,VALID,-0.0169808,VALID,20.4423,VALID,140,VALID,1.71373,
2007-02-28, 00:16:00,VALID,916.13,VALID,0,VALID,91.9485,VALID,-0.0169808,VALID,20.4226,VALID,143,VALID,2.13689,
2007-02-28, 00:17:00,VALID,916.125,VALID,0,VALID,91.8874,VALID,0.0169808,VALID,20.4385,VALID,150,VALID,2.19288,
2007-02-28, 00:18:00,VALID,916.108,VALID,0,VALID,91.7374,VALID,0,VALID,20.4418,VALID,146,VALID,1.65067,
2007-02-28, 00:19:00,VALID,916.096,VALID,0,VALID,91.6217,VALID,0.0169808,VALID,20.4377,VALID,146,VALID,1.46151,
2007-02-28, 00:20:00,VALID,916.099,VALID,0,VALID,91.6534,VALID,-0.0169808,VALID,20.4645,VALID,113,VALID,1.25428,
2007-02-28, 00:21:00,VALID,916.088,VALID,0,VALID,91.7793,VALID,0.0509425,VALID,20.4315,VALID,135,VALID,1.29634,
2007-02-28, 00:22:00,VALID,916.083,VALID,0,VALID,91.9332,VALID,-0.0169808,VALID,20.3969,VALID,142,VALID,1.01507,
2007-02-28, 00:23:00,VALID,916.066,VALID,0,VALID,92.0527,VALID,0.0169808,VALID,20.3669,VALID,136,VALID,1.47475,
2007-02-28, 00:24:00,VALID,916.076,VALID,0,VALID,92.1456,VALID,0,VALID,20.3604,VALID,120,VALID,0.810764,
2007-02-28, 00:25:00,VALID,916.085,VALID,0,VALID,92.2422,VALID,0.0169808,VALID,20.3547,VALID,127,VALID,1.23475,
2007-02-28, 00:26:00,VALID,916.074,VALID,0,VALID,92.2714,VALID,0,VALID,20.3282,VALID,132,VALID,1.46484,
2007-02-28, 00:27:00,VALID,916.069,VALID,0,VALID,92.335,VALID,-0.0339617,VALID,20.325,VALID,113,VALID,1.0359,
2007-02-28, 00:28:00,VALID,916.057,VALID,0,VALID,92.4584,VALID,0,VALID,20.3028,VALID,78,VALID,0.653646,
2007-02-28, 00:29:00,VALID,916.05,VALID,0,VALID,92.6122,VALID,-0.0339617,VALID,20.2608,VALID,129,VALID,1.02439,
2007-02-28, 00:30:00,VALID,916.043,VALID,0,VALID,92.6936,VALID,-0.0169808,VALID,20.2403,VALID,140,VALID,1.14915,
2007-02-28, 00:31:00,VALID,916.037,VALID,0,VALID,92.5067,VALID,0,VALID,20.2498,VALID,154,VALID,1.94313,
2007-02-28, 00:32:00,VALID,916.04,VALID,0,VALID,92.3439,VALID,0,VALID,20.276,VALID,156,VALID,1.43415,
2007-02-28, 00:33:00,VALID,916.044,VALID,0,VALID,92.3032,VALID,0.0169808,VALID,20.2955,VALID,139,VALID,1.02763,
2007-02-28, 00:34:00,VALID,916.043,VALID,0,VALID,92.3058,VALID,0,VALID,20.289,VALID,97,VALID,0.531064,
2007-02-28, 00:35:00,VALID,916.034,VALID,0,VALID,92.41,VALID,0,VALID,20.2728,VALID,82,VALID,0.427144,
2007-02-28, 00:36:00,VALID,916.041,VALID,0,VALID,92.5283,VALID,0.0509425,VALID,20.2336,VALID,90,VALID,0.0543241,
2007-02-28, 00:37:00,VALID,916.056,VALID,0,VALID,92.6084,VALID,0.0509425,VALID,20.1914,VALID,90,VALID,0,
2007-02-28, 00:38:00,VALID,916.048,VALID,0,VALID,92.7699,VALID,0.0169808,VALID,20.156,VALID,90,VALID,0.0143532,
2007-02-28, 00:39:00,VALID,916.056,VALID,0,VALID,93.028,VALID,0.0339617,VALID,20.1333,VALID,90,VALID,0.166606,
2007-02-28, 00:40:00,VALID,916.05,VALID,0,VALID,93.215,VALID,0.0339617,VALID,20.1103,VALID,90,VALID,0.0465353,
2007-02-28, 00:41:00,VALID,916.054,VALID,0,VALID,93.3599,VALID,0,VALID,20.0876,VALID,90,VALID,0.0280107,
2007-02-28, 00:42:00,VALID,916.041,VALID,0,VALID,93.496,VALID,0.0339617,VALID,20.0552,VALID,90,VALID,0.125,
2007-02-28, 00:43:00,VALID,916.046,VALID,0,VALID,93.6931,VALID,-0.0169808,VALID,20.0265,VALID,90,VALID,0,
2007-02-28, 00:44:00,VALID,916.048,VALID,0,VALID,93.8635,VALID,-0.0849042,VALID,19.9948,VALID,90,VALID,0.0012429,
2007-02-28, 00:45:00,VALID,916.047,VALID,0,VALID,94.0199,VALID,-0.0509425,VALID,19.9559,VALID,90,VALID,0.193026,
2007-02-28, 00:46:00,VALID,916.026,VALID,0,VALID,94.0708,VALID,-0.101885,VALID,19.9204,VALID,90,VALID,0.139236,
2007-02-28, 00:47:00,VALID,916.01,VALID,0,VALID,94.3467,VALID,-0.0849042,VALID,19.8882,VALID,128,VALID,0.548958,
2007-02-28, 00:48:00,VALID,915.992,VALID,0,VALID,94.7396,VALID,-0.0849042,VALID,19.8553,VALID,142,VALID,0.642149,
2007-02-28, 00:49:00,VALID,915.971,VALID,0,VALID,94.9176,VALID,-0.101885,VALID,19.8553,VALID,131,VALID,0.835938,
2007-02-28, 00:50:00,VALID,915.963,VALID,0,VALID,95.0346,VALID,-0.101885,VALID,19.866,VALID,136,VALID,0.866642,
2007-02-28, 00:51:00,VALID,915.952,VALID,0,VALID,95.0931,VALID,-0.0849042,VALID,19.8326,VALID,138,VALID,0.699396,
2007-02-28, 00:52:00,VALID,915.939,VALID,0,VALID,95.2445,VALID,-0.0679233,VALID,19.8228,VALID,133,VALID,1.10919,
2007-02-28, 00:53:00,VALID,915.914,VALID,0,VALID,95.3805,VALID,-0.0339617,VALID,19.8096,VALID,142,VALID,1.20712,
2007-02-28, 00:54:00,VALID,915.909,VALID,0,VALID,95.4174,VALID,-0.0679233,VALID,19.8034,VALID,143,VALID,1.23316,
2007-02-28, 00:55:00,VALID,915.902,VALID,0,VALID,95.4123,VALID,-0.0679233,VALID,19.8099,VALID,141,VALID,1.33727,
2007-02-28, 00:56:00,VALID,915.89,VALID,0,VALID,95.3843,VALID,-0.0849042,VALID,19.8129,VALID,150,VALID,1.08976,
2007-02-28, 00:57:00,VALID,915.894,VALID,0,VALID,95.378,VALID,-0.0509425,VALID,19.8163,VALID,144,VALID,1.30705,
2007-02-28, 00:58:00,VALID,915.885,VALID,0,VALID,95.3475,VALID,0,VALID,19.8089,VALID,149,VALID,1.14941,
2007-02-28, 00:59:00,VALID,915.872,VALID,0,VALID,95.4937,VALID,0.0169808,VALID,19.8119,VALID,150,VALID,1.65885,
2007-02-28, 01:00:00,VALID,915.87,VALID,0,VALID,95.5077,VALID,0.0169808,VALID,19.8246,VALID,153,VALID,1.49609,
2007-02-28, 01:01:00,VALID,915.862,VALID,0,VALID,95.4365,VALID,0,VALID,19.8343,VALID,151,VALID,1.65389,
2007-02-28, 01:02:00,VALID,915.856,VALID,0,VALID,95.3398,VALID,0,VALID,19.851,VALID,157,VALID,1.0972,
2007-02-28, 01:03:00,VALID,915.846,VALID,0,VALID,95.3386,VALID,0.0169808,VALID,19.8443,VALID,150,VALID,1.33651,
2007-02-28, 01:04:00,VALID,915.841,VALID,0,VALID,95.4288,VALID,0.0679233,VALID,19.8405,VALID,157,VALID,1.19023,
2007-02-28, 01:05:00,VALID,915.824,VALID,0,VALID,95.4021,VALID,0.0339617,VALID,19.8478,VALID,150,VALID,1.11577,
2007-02-28, 01:06:00,VALID,915.81,VALID,0,VALID,95.4225,VALID,0.0849042,VALID,19.8408,VALID,151,VALID,1.22781,
2007-02-28, 01:07:00,VALID,915.806,VALID,0,VALID,95.5433,VALID,0.0509425,VALID,19.8376,VALID,141,VALID,1.48473,
2007-02-28, 01:08:00,VALID,915.809,VALID,0,VALID,95.5013,VALID,0.0169808,VALID,19.8475,VALID,137,VALID,1.10605,
2007-02-28, 01:09:00,VALID,915.797,VALID,0,VALID,95.5725,VALID,0.0509425,VALID,19.8311,VALID,140,VALID,1.38228,
2007-02-28, 01:10:00,VALID,915.794,VALID,0,VALID,95.6323,VALID,0,VALID,19.8413,VALID,137,VALID,1.22027,
2007-02-28, 01:11:00,VALID,915.781,VALID,0,VALID,95.5649,VALID,0.0169808,VALID,19.8313,VALID,146,VALID,1.11124,
2007-02-28, 01:12:00,VALID,915.796,VALID,0,VALID,95.5802,VALID,0.0339617,VALID,19.8054,VALID,138,VALID,1.24591,
2007-02-28, 01:13:00,VALID,915.786,VALID,0,VALID,95.7505,VALID,-0.0169808,VALID,19.7859,VALID,151,VALID,1.04241,
2007-02-28, 01:14:00,VALID,915.786,VALID,0,VALID,95.7162,VALID,0.0509425,VALID,19.7861,VALID,148,VALID,0.964658,
2007-02-28, 01:15:00,VALID,915.784,VALID,0,VALID,95.7556,VALID,0,VALID,19.7732,VALID,171,VALID,0.821007,
2007-02-28, 01:16:00,VALID,915.78,VALID,0,VALID,95.7734,VALID,0.0509425,VALID,19.75,VALID,181,VALID,0.654297,
2007-02-28, 01:17:00,VALID,915.766,VALID,0,VALID,95.7633,VALID,0.0509425,VALID,19.7337,VALID,237,VALID,0.666853,
2007-02-28, 01:18:00,VALID,915.762,VALID,0,VALID,96.0201,VALID,0.0339617,VALID,19.7175,VALID,265,VALID,0.690225,
2007-02-28, 01:19:00,VALID,915.76,VALID,0,VALID,96.1702,VALID,0.0509425,VALID,19.6559,VALID,227,VALID,0.793423,
2007-02-28, 01:20:00,VALID,915.732,VALID,0,VALID,96.6127,VALID,0,VALID,19.5848,VALID,250,VALID,0.874219,
2007-02-28, 01:21:00,VALID,915.721,VALID,0,VALID,97.0705,VALID,0.0509425,VALID,19.4935,VALID,322,VALID,0.703869,
2007-02-28, 01:22:00,VALID,915.714,VALID,0,VALID,97.368,VALID,0.0339617,VALID,19.4453,VALID,351,VALID,0.416921,
2007-02-28, 01:23:00,VALID,915.715,VALID,0,VALID,97.5003,VALID,0.0339617,VALID,19.3994,VALID,328,VALID,0.239826,
2007-02-28, 01:24:00,VALID,915.711,VALID,0,VALID,97.6185,VALID,0,VALID,19.3542,VALID,315,VALID,0.142361,
2007-02-28, 01:25:00,VALID,915.678,VALID,0,VALID,97.6732,VALID,0.0169808,VALID,19.3093,VALID,327,VALID,0.337754,
2007-02-28, 01:26:00,VALID,915.668,VALID,0,VALID,97.836,VALID,0,VALID,19.244,VALID,329,VALID,0.40734,
2007-02-28, 01:27:00,VALID,915.656,VALID,0,VALID,98.0522,VALID,0,VALID,19.2247,VALID,329,VALID,0.197674,
2007-02-28, 01:28:00,VALID,915.652,VALID,0,VALID,97.9924,VALID,-0.0339617,VALID,19.1928,VALID,329,VALID,0.110283,
2007-02-28, 01:29:00,VALID,915.652,VALID,0,VALID,97.925,VALID,-0.0679233,VALID,19.1514,VALID,329,VALID,0.226181,
2007-02-28, 01:30:00,VALID,915.635,VALID,0,VALID,98.192,VALID,-0.0849042,VALID,19.1284,VALID,329,VALID,0.0814986,
2007-02-28, 01:31:00,VALID,915.619,VALID,0,VALID,98.412,VALID,-0.101885,VALID,19.1351,VALID,329,VALID,0,
2007-02-28, 01:32:00,VALID,915.627,VALID,0,VALID,98.4807,VALID,-0.0679233,VALID,19.1319,VALID,329,VALID,0,
2007-02-28, 01:33:00,VALID,915.614,VALID,0,VALID,98.4629,VALID,-0.0849042,VALID,19.1222,VALID,329,VALID,0,
2007-02-28, 01:34:00,VALID,915.604,VALID,0,VALID,98.2734,VALID,-0.0679233,VALID,19.0735,VALID,329,VALID,0.0219494,
2007-02-28, 01:35:00,VALID,915.601,VALID,0,VALID,98.3179,VALID,-0.0339617,VALID,19.0476,VALID,329,VALID,0.0292515,
2007-02-28, 01:36:00,VALID,915.594,VALID,0,VALID,98.5913,VALID,-0.0339617,VALID,19.0281,VALID,329,VALID,0.179142,
2007-02-28, 01:37:00,VALID,915.593,VALID,0,VALID,98.969,VALID,-0.0849042,VALID,19.054,VALID,329,VALID,0.332465,
2007-02-28, 01:38:00,VALID,915.582,VALID,0,VALID,99.1546,VALID,-0.0509425,VALID,19.0735,VALID,329,VALID,0.1337,
2007-02-28, 01:39:00,VALID,915.563,VALID,0,VALID,99.2144,VALID,-0.101885,VALID,19.0703,VALID,329,VALID,0,
2007-02-28, 01:40:00,VALID,915.555,VALID,0,VALID,99.367,VALID,-0.0679233,VALID,19.0735,VALID,329,VALID,0,
2007-02-28, 01:41:00,VALID,915.535,VALID,0,VALID,99.4204,VALID,-0.0849042,VALID,19.0665,VALID,329,VALID,0.0230655,
2007-02-28, 01:42:00,VALID,915.512,VALID,0,VALID,98.9499,VALID,-0.0679233,VALID,19.0022,VALID,329,VALID,0.00390625,
2007-02-28, 01:43:00,VALID,915.51,VALID,0,VALID,98.5799,VALID,-0.0679233,VALID,18.9273,VALID,329,VALID,0,
2007-02-28, 01:44:00,VALID,915.493,VALID,0,VALID,98.7248,VALID,-0.0509425,VALID,18.8754,VALID,329,VALID,0,
2007-02-28, 01:45:00,VALID,915.475,VALID,0,VALID,99.0071,VALID,-0.0679233,VALID,18.853,VALID,329,VALID,0,
2007-02-28, 01:46:00,VALID,915.454,VALID,0,VALID,99.1737,VALID,-0.0339617,VALID,18.8465,VALID,329,VALID,0,
2007-02-28, 01:47:00,VALID,915.436,VALID,0,VALID,99.3683,VALID,-0.0679233,VALID,18.8163,VALID,329,VALID,0,
2007-02-28, 01:48:00,VALID,915.416,VALID,0,VALID,99.5704,VALID,-0.0849042,VALID,18.84,VALID,329,VALID,0,
2007-02-28, 01:49:00,VALID,915.402,VALID,0,VALID,99.6849,VALID,-0.0679233,VALID,18.8298,VALID,329,VALID,0,
2007-02-28, 01:50:00,VALID,915.371,VALID,0,VALID,99.8426,VALID,-0.0339617,VALID,18.8333,VALID,329,VALID,0,
2007-02-28, 01:51:00,VALID,915.366,VALID,0,VALID,99.6213,VALID,-0.0169808,VALID,18.7971,VALID,329,VALID,0,
2007-02-28, 01:52:00,VALID,915.345,VALID,0,VALID,99.2309,VALID,-0.0679233,VALID,18.7265,VALID,329,VALID,0,
2007-02-28, 01:53:00,VALID,915.339,VALID,0,VALID,98.5532,VALID,-0.0849042,VALID,18.6065,VALID,329,VALID,0,
2007-02-28, 01:54:00,VALID,915.341,VALID,0,VALID,98.5989,VALID,-0.101885,VALID,18.5161,VALID,329,VALID,0,
2007-02-28, 01:55:00,VALID,915.329,VALID,0,VALID,99.1572,VALID,-0.118866,VALID,18.4867,VALID,329,VALID,0,
2007-02-28, 01:56:00,VALID,915.32,VALID,0,VALID,99.6951,VALID,-0.0679233,VALID,18.5154,VALID,329,VALID,0,
2007-02-28, 01:57:00,VALID,915.322,VALID,0,VALID,99.8273,VALID,-0.0849042,VALID,18.5092,VALID,329,VALID,0,
2007-02-28, 01:58:00,VALID,915.304,VALID,0,VALID,99.9964,VALID,-0.0169808,VALID,18.5245,VALID,329,VALID,0,
2007-02-28, 01:59:00,VALID,915.296,VALID,0,VALID,100,VALID,0.0339617,VALID,18.537,VALID,329,VALID,0,
2007-02-28, 02:00:00,VALID,915.292,VALID,0,VALID,100,VALID,0,VALID,18.5467,VALID,329,VALID,0,
2007-02-28, 02:01:00,VALID,915.262,VALID,0,VALID,100,VALID,0.0169808,VALID,18.5791,VALID,329,VALID,0,
2007-02-28, 02:02:00,VALID,915.239,VALID,0,VALID,100,VALID,0.0169808,VALID,18.6085,VALID,329,VALID,0.100174,
2007-02-28, 02:03:00,VALID,915.218,VALID,0,VALID,100,VALID,0.0169808,VALID,18.6442,VALID,329,VALID,0.350446,
2007-02-28, 02:04:00,VALID,915.206,VALID,0,VALID,100,VALID,-0.0169808,VALID,18.644,VALID,329,VALID,0.408203,
2007-02-28, 02:05:00,VALID,915.179,VALID,0,VALID,100,VALID,0,VALID,18.657,VALID,329,VALID,0.378018,
2007-02-28, 02:06:00,VALID,915.162,VALID,0,VALID,100,VALID,0.0169808,VALID,18.6607,VALID,329,VALID,0.325945,
2007-02-28, 02:07:00,VALID,915.141,VALID,0,VALID,100,VALID,-0.0169808,VALID,18.6667,VALID,329,VALID,0.356517,
2007-02-28, 02:08:00,VALID,915.14,VALID,0,VALID,100,VALID,0,VALID,18.6764,VALID,329,VALID,0.499442,
2007-02-28, 02:09:00,VALID,915.123,VALID,0,VALID,100,VALID,0,VALID,18.7413,VALID,358,VALID,0.534375,
2007-02-28, 02:10:00,VALID,915.115,VALID,0,VALID,100,VALID,-0.0169808,VALID,18.8129,VALID,29,VALID,0.526758,
2007-02-28, 02:11:00,VALID,915.105,VALID,0,VALID,100,VALID,-0.0339617,VALID,18.8522,VALID,29,VALID,0.528888,
2007-02-28, 02:12:00,VALID,915.088,VALID,0,VALID,100,VALID,0,VALID,18.8483,VALID,29,VALID,0.435976,
2007-02-28, 02:13:00,VALID,915.067,VALID,0,VALID,100,VALID,-0.0509425,VALID,18.8553,VALID,29,VALID,0.400213,
2007-02-28, 02:14:00,VALID,915.069,VALID,0,VALID,99.9776,VALID,-0.101885,VALID,18.8497,VALID,29,VALID,0.128906,
2007-02-28, 02:15:00,VALID,915.052,VALID,0,VALID,99.7307,VALID,-0.101885,VALID,18.821,VALID,29,VALID,0,
2007-02-28, 02:16:00,VALID,915.048,VALID,0,VALID,99.278,VALID,-0.118866,VALID,18.7659,VALID,29,VALID,0,
2007-02-28, 02:17:00,VALID,915.04,VALID,0,VALID,98.7108,VALID,-0.0849042,VALID,18.6651,VALID,29,VALID,0,
2007-02-28, 02:18:00,VALID,915.04,VALID,0,VALID,98.6587,VALID,-0.101885,VALID,18.571,VALID,29,VALID,0,
2007-02-28, 02:19:00,VALID,915.021,VALID,0,VALID,98.7617,VALID,-0.101885,VALID,18.4962,VALID,29,VALID,0,
2007-02-28, 02:20:00,VALID,915.006,VALID,0,VALID,99.0567,VALID,-0.0849042,VALID,18.4606,VALID,29,VALID,0,
2007-02-28, 02:21:00,VALID,915.004,VALID,0,VALID,99.4382,VALID,-0.0849042,VALID,18.4738,VALID,29,VALID,0,
2007-02-28, 02:22:00,VALID,914.969,VALID,0,VALID,99.6302,VALID,-0.0849042,VALID,18.4738,VALID,29,VALID,0,
2007-02-28, 02:23:00,VALID,914.971,VALID,0,VALID,99.737,VALID,-0.101885,VALID,18.4506,VALID,29,VALID,0,
2007-02-28, 02:24:00,VALID,914.953,VALID,0,VALID,99.9888,VALID,-0.0849042,VALID,18.4573,VALID,29,VALID,0,
2007-02-28, 02:25:00,VALID,914.925,VALID,0,VALID,100,VALID,-0.0509425,VALID,18.5027,VALID,29,VALID,0,
2007-02-28, 02:26:00,VALID,914.918,VALID,0,VALID,100,VALID,-0.0679233,VALID,18.5481,VALID,29,VALID,0,
2007-02-28, 02:27:00,VALID,914.901,VALID,0,VALID,100,VALID,-0.0509425,VALID,18.5703,VALID,29,VALID,0,
2007-02-28, 02:28:00,VALID,914.878,VALID,0,VALID,100,VALID,-0.0509425,VALID,18.5958,VALID,29,VALID,0,
2007-02-28, 02:29:00,VALID,914.858,VALID,0,VALID,100,VALID,0.0169808,VALID,18.5599,VALID,29,VALID,0,
2007-02-28, 02:30:00,VALID,914.841,VALID,0,VALID,100,VALID,0.0169808,VALID,18.5402,VALID,29,VALID,0.149148,
2007-02-28, 02:31:00,VALID,914.817,VALID,0,VALID,100,VALID,0.0169808,VALID,18.5205,VALID,29,VALID,0.186806,
2007-02-28, 02:32:00,VALID,914.798,VALID,0,VALID,99.9194,VALID,0,VALID,18.4686,VALID,29,VALID,0.442308,
2007-02-28, 02:33:00,VALID,914.783,VALID,0,VALID,99.985,VALID,0.0509425,VALID,18.42,VALID,29,VALID,0.455966,
2007-02-28, 02:34:00,VALID,914.758,VALID,0,VALID,100,VALID,0.0169808,VALID,18.4138,VALID,29,VALID,0.412538,
2007-02-28, 02:35:00,VALID,914.731,VALID,0,VALID,100,VALID,0.0169808,VALID,18.4168,VALID,29,VALID,0.409624,
2007-02-28, 02:36:00,VALID,914.716,VALID,0,VALID,100,VALID,0.0509425,VALID,18.4038,VALID,29,VALID,0.4375,
2007-02-28, 02:37:00,VALID,914.696,VALID,0,VALID,100,VALID,0,VALID,18.3878,VALID,35,VALID,0.56321,
2007-02-28, 02:38:00,VALID,914.671,VALID,0,VALID,100,VALID,0.0169808,VALID,18.3938,VALID,70,VALID,0.549423,
2007-02-28, 02:39:00,VALID,914.67,VALID,0,VALID,100,VALID,0.0339617,VALID,18.3387,VALID,90,VALID,0.740319,
2007-02-28, 02:40:00,VALID,914.675,VALID,0,VALID,100,VALID,0,VALID,18.3322,VALID,114,VALID,1.0198,
2007-02-28, 02:41:00,VALID,914.67,VALID,0,VALID,100,VALID,0.0339617,VALID,18.401,VALID,116,VALID,0.879383,
2007-02-28, 02:42:00,VALID,914.667,VALID,0,VALID,100,VALID,0.0169808,VALID,18.4397,VALID,116,VALID,0.924964,
2007-02-28, 02:43:00,VALID,914.669,VALID,0,VALID,100,VALID,-0.0169808,VALID,18.4466,VALID,116,VALID,0.877976,
2007-02-28, 02:44:00,VALID,914.67,VALID,0,VALID,100,VALID,-0.0849042,VALID,18.4603,VALID,116,VALID,0.790923,
2007-02-28, 02:45:00,VALID,914.672,VALID,0,VALID,100,VALID,-0.0679233,VALID,18.4995,VALID,118,VALID,0.712081,
2007-02-28, 02:46:00,VALID,914.672,VALID,0,VALID,100,VALID,-0.0339617,VALID,18.4895,VALID,119,VALID,0.578697,
2007-02-28, 02:47:00,VALID,914.667,VALID,0,VALID,100,VALID,-0.0509425,VALID,18.4601,VALID,124,VALID,0.602493,
2007-02-28, 02:48:00,VALID,914.662,VALID,0,VALID,100,VALID,0,VALID,18.4274,VALID,124,VALID,0.631138,
2007-02-28, 02:49:00,VALID,914.662,VALID,0,VALID,100,VALID,-0.0339617,VALID,18.3887,VALID,125,VALID,0.854725,
2007-02-28, 02:50:00,VALID,914.662,VALID,0,VALID,100,VALID,-0.0849042,VALID,18.389,VALID,137,VALID,0.94809,
2007-02-28, 02:51:00,VALID,914.654,VALID,0,VALID,100,VALID,-0.101885,VALID,18.4017,VALID,147,VALID,0.928735,
2007-02-28, 02:52:00,VALID,914.646,VALID,0,VALID,100,VALID,-0.0509425,VALID,18.4149,VALID,153,VALID,0.820135,
2007-02-28, 02:53:00,VALID,914.637,VALID,0,VALID,100,VALID,-0.0849042,VALID,18.4084,VALID,154,VALID,0.65718,
2007-02-28, 02:54:00,VALID,914.623,VALID,0,VALID,100,VALID,-0.0849042,VALID,18.3989,VALID,154,VALID,0.595911,
2007-02-28, 02:55:00,VALID,914.616,VALID,0,VALID,100,VALID,-0.0679233,VALID,18.3591,VALID,145,VALID,0.602679,
2007-02-28, 02:56:00,VALID,914.62,VALID,0,VALID,100,VALID,-0.0169808,VALID,18.3823,VALID,138,VALID,0.703125,
2007-02-28, 02:57:00,VALID,914.62,VALID,0,VALID,100,VALID,-0.0679233,VALID,18.4175,VALID,129,VALID,0.885417,
2007-02-28, 02:58:00,VALID,914.608,VALID,0,VALID,100,VALID,-0.0679233,VALID,18.4601,VALID,125,VALID,0.907158,
2007-02-28, 02:59:00,VALID,914.58,VALID,0,VALID,100,VALID,-0.0849042,VALID,18.4828,VALID,125,VALID,0.884115,
2007-02-28, 03:00:00,VALID,914.58,VALID,0,VALID,100,VALID,0,VALID,18.499,VALID,125,VALID,0.925327,
2007-02-28, 03:01:00,VALID,914.565,VALID,0,VALID,100,VALID,-0.0339617,VALID,18.5347,VALID,123,VALID,0.917188,
2007-02-28, 03:02:00,VALID,914.555,VALID,0,VALID,100,VALID,-0.0339617,VALID,18.5279,VALID,117,VALID,0.739462,
2007-02-28, 03:03:00,VALID,914.538,VALID,0,VALID,100,VALID,-0.0509425,VALID,18.5254,VALID,113,VALID,0.59468,
2007-02-28, 03:04:00,VALID,914.524,VALID,0,VALID,100,VALID,-0.0339617,VALID,18.4242,VALID,112,VALID,0.458274,
2007-02-28, 03:05:00,VALID,914.519,VALID,0,VALID,100,VALID,-0.0339617,VALID,18.3332,VALID,112,VALID,0.566315,
2007-02-28, 03:06:01,VALID,914.493,VALID,0,VALID,100,VALID,-0.0339617,VALID,18.2878,VALID,110,VALID,0.747713,
2007-02-28, 03:07:00,VALID,914.479,VALID,0,VALID,100,VALID,-0.0339617,VALID,18.288,VALID,97,VALID,0.974085,
2007-02-28, 03:08:00,VALID,914.449,VALID,0,VALID,100,VALID,-0.0509425,VALID,18.3274,VALID,93,VALID,0.807927,
2007-02-28, 03:09:00,VALID,914.426,VALID,0,VALID,100,VALID,0,VALID,18.3109,VALID,93,VALID,0.831101,
2007-02-28, 03:10:01,VALID,914.419,VALID,0,VALID,100,VALID,-0.0339617,VALID,18.3012,VALID,93,VALID,0.771129,
2007-02-28, 03:11:00,VALID,914.395,VALID,0,VALID,100,VALID,-0.0679233,VALID,18.3014,VALID,93,VALID,0.888579,
2007-02-28, 03:12:00,VALID,914.387,VALID,0,VALID,100,VALID,-0.0509425,VALID,18.301,VALID,93,VALID,1.05409,
2007-02-28, 03:13:00,VALID,914.393,VALID,0,VALID,100,VALID,-0.0679233,VALID,18.3105,VALID,97,VALID,1.11643,
2007-02-28, 03:14:00,VALID,914.381,VALID,0,VALID,100,VALID,-0.0509425,VALID,18.3626,VALID,102,VALID,0.810938,
2007-02-28, 03:15:01,VALID,914.379,VALID,0,VALID,100,VALID,-0.0509425,VALID,18.3918,VALID,109,VALID,0.859375,
2007-02-28, 03:16:00,VALID,914.37,VALID,0,VALID,100,VALID,-0.0169808,VALID,18.3887,VALID,135,VALID,0.931944,
2007-02-28, 03:17:01,VALID,914.38,VALID,0,VALID,100,VALID,-0.0509425,VALID,18.3271,VALID,147,VALID,1.10865,
2007-02-28, 03:18:00,VALID,914.386,VALID,0,VALID,100,VALID,0,VALID,18.3102,VALID,145,VALID,1.08085,
2007-02-28, 03:19:00,VALID,914.378,VALID,0,VALID,100,VALID,-0.0509425,VALID,18.3142,VALID,148,VALID,0.860085,
2007-02-28, 03:20:00,VALID,914.379,VALID,0,VALID,100,VALID,-0.101885,VALID,18.2885,VALID,150,VALID,1.18823,
2007-02-28, 03:21:00,VALID,914.388,VALID,0,VALID,100,VALID,-0.0849042,VALID,18.266,VALID,151,VALID,1.15625,
2007-02-28, 03:22:00,VALID,914.401,VALID,0,VALID,100,VALID,-0.0339617,VALID,18.2625,VALID,145,VALID,1.30877,
2007-02-28, 03:23:00,VALID,914.385,VALID,0,VALID,100,VALID,-0.0679233,VALID,18.2595,VALID,147,VALID,1.06566,
2007-02-28, 03:24:00,VALID,914.378,VALID,0,VALID,100,VALID,-0.0679233,VALID,18.2299,VALID,154,VALID,1.27205,
2007-02-28, 03:25:01,VALID,914.366,VALID,0,VALID,100,VALID,-0.0339617,VALID,18.2007,VALID,155,VALID,1.09339,
2007-02-28, 03:26:00,VALID,914.364,VALID,0,VALID,100,VALID,-0.0679233,VALID,18.1682,VALID,154,VALID,1.25236,
2007-02-28, 03:27:00,VALID,914.357,VALID,0,VALID,100,VALID,-0.0509425,VALID,18.1453,VALID,148,VALID,1.15243,
2007-02-28, 03:28:01,VALID,914.353,VALID,0,VALID,100,VALID,-0.0339617,VALID,18.1451,VALID,148,VALID,1.13516,
2007-02-28, 03:29:00,VALID,914.33,VALID,0,VALID,100,VALID,-0.0679233,VALID,18.1391,VALID,152,VALID,1.22384,
2007-02-28, 03:30:00,VALID,914.322,VALID,0,VALID,100,VALID,-0.0679233,VALID,18.1393,VALID,148,VALID,1.29592,
2007-02-28, 03:31:00,VALID,914.307,VALID,0,VALID,100,VALID,-0.0339617,VALID,18.1388,VALID,143,VALID,1.44912,
2007-02-28, 03:32:00,VALID,914.313,VALID,0,VALID,100,VALID,-0.0169808,VALID,18.1481,VALID,140,VALID,1.41842,
2007-02-28, 03:33:00,VALID,914.297,VALID,0,VALID,100,VALID,-0.0339617,VALID,18.1845,VALID,138,VALID,1.43309,
2007-02-28, 03:34:00,VALID,914.296,VALID,0,VALID,100,VALID,-0.0339617,VALID,18.2169,VALID,141,VALID,1.32885,
2007-02-28, 03:35:00,VALID,914.309,VALID,0,VALID,100,VALID,-0.0339617,VALID,18.2292,VALID,137,VALID,1.17188,
2007-02-28, 03:36:00,VALID,914.287,VALID,0,VALID,100,VALID,-0.0169808,VALID,18.2752,VALID,122,VALID,1.0298,